FW8733 Weather Reports


time (UTC)temp
F
wind
direction
speed
knots
gust
knots
rain 1hr
in
rain 24hr
in
rain mn
in
humidity
%
barometer
mb
20260905050754 82 106 1.7 2.6 0.00 0.00 0.00 80 1017.5
20260905050250 82 185 1.7 2.6 0.00 0.00 0.00 80 1017.1
20260905045745 82 202 3.5 4.3 0.00 0.00 0.00 79 1017.5
20260905045240 82 201 0.9 1.7 0.00 0.00 0.00 79 1017.3
20260905044735 82 201 2.6 2.6 0.00 0.00 0.00 79 1017.4
20260905044231 82 203 0.9 0.9 0.00 0.00 0.00 79 1017.5
20260905043729 82 214 1.7 2.6 0.00 0.00 0.00 78 1017.3
20260905043229 82 176 1.7 2.6 0.00 0.00 0.00 78 1017.1
20260905042725 82 223 0.0 0.9 0.00 0.00 0.00 78 1017.4
20260905042224 83 209 1.7 1.7 0.00 0.00 0.00 77 1017.3
20260905041720 83 183 2.6 4.3 0.00 0.00 0.00 77 1017.2
20260905041215 83 207 0.9 0.9 0.00 0.00 0.00 77 1017.2
20260905040710 83 147 2.6 2.6 0.00 0.00 0.00 76 1017.0
20260905040209 83 213 0.9 0.9 0.00 0.00 0.00 76 1017.2
20260905035709 83 203 1.7 1.7 0.00 0.00 0.00 76 1017.2
20260905035205 83 213 1.7 1.7 0.00 0.00 0.00 76 1017.3
20260905034701 83 220 0.0 0.0 0.00 0.00 0.00 75 1017.1
20260905034201 83 226 1.7 1.7 0.00 0.00 0.00 75 1017.1
20260905033700 83 211 0.9 0.9 0.00 0.00 0.00 74 1017.2
20260905033156 84 199 1.7 2.6 0.00 0.00 0.00 73 1017.3
20260905032655 84 185 1.7 2.6 0.00 0.00 0.00 73 1017.0
20260905032155 84 223 3.5 5.2 0.00 0.00 0.00 72 1017.0
20260905031651 84 201 2.6 2.6 0.00 0.00 0.00 72 1016.8
20260905031147 84 192 1.7 1.7 0.00 0.00 0.00 71 1017.0
20260905030642 84 174 2.6 2.6 0.00 0.00 0.00 71 1017.0
20260905030137 84 213 3.5 4.3 0.00 0.00 0.00 71 1016.7
20260905025631 84 221 0.0 0.0 0.00 0.00 0.00 71 1016.7
20260905025128 84 192 0.9 0.9 0.00 0.00 0.00 71 1017.0
20260905024623 84 180 2.6 2.6 0.00 0.00 0.00 70 1016.7
20260905024118 84 158 2.6 2.6 0.00 0.00 0.00 70 1016.5
20260905023614 84 210 0.0 0.0 0.00 0.00 0.00 70 1016.5
20260905023108 84 165 1.7 4.3 0.00 0.00 0.00 70 1016.3
20260905022607 85 156 2.6 4.3 0.00 0.00 0.00 70 1016.5
20260905022103 85 197 1.7 1.7 0.00 0.00 0.00 69 1016.3
20260905021602 85 200 1.7 1.7 0.00 0.00 0.00 70 1016.4
20260905021058 85 198 2.6 2.6 0.00 0.00 0.00 70 1016.2
20260905020557 85 196 1.7 1.7 0.00 0.00 0.00 69 1016.4
20260905020053 86 172 3.5 4.3 0.00 0.00 0.00 68 1016.3
20260905015550 86 193 2.6 2.6 0.00 0.00 0.00 69 1016.4
20260905015045 86 243 3.5 5.2 0.00 0.00 0.00 68 1016.1
20260905014540 86 174 1.7 1.7 0.00 0.00 0.00 68 1016.2
20260905014035 86 186 1.7 1.7 0.00 0.00 0.00 67 1016.2
20260905013532 86 193 2.6 2.6 0.00 0.00 0.00 67 1016.2
20260905013027 87 168 3.5 4.3 0.00 0.00 0.00 67 1015.9
20260905012521 87 209 3.5 4.3 0.00 0.00 0.00 66 1015.9
20260905012019 87 215 4.3 6.1 0.00 0.00 0.00 65 1016.1
20260905011514 87 137 2.6 2.6 0.00 0.00 0.00 65 1015.7
20260905011010 87 179 1.7 1.7 0.00 0.00 0.00 64 1015.7
20260905010509 88 167 3.5 4.3 0.00 0.00 0.00 63 1015.6
20260905010006 88 179 1.7 1.7 0.00 0.00 0.00 63 1015.7
20260905005501 88 162 4.3 5.2 0.00 0.00 0.00 62 1015.5
20260905004956 88 221 0.0 0.9 0.00 0.00 0.00 62 1015.6
20260905004451 88 175 1.7 2.6 0.00 0.00 0.00 62 1015.6
20260905003946 89 194 0.0 0.0 0.00 0.00 0.00 62 1015.6
20260905003442 89 184 3.5 5.2 0.00 0.00 0.00 61 1015.3
20260905002937 89 160 4.3 5.2 0.00 0.00 0.00 60 1015.2
20260905002432 90 188 2.6 2.6 0.00 0.00 0.00 58 1015.3
20260905001931 91 130 2.6 2.6 0.00 0.00 0.00 50 1015.2
20260905001427 91 222 1.7 2.6 0.00 0.00 0.00 49 1015.2
20260905000921 91 210 2.6 4.3 0.00 0.00 0.00 48 1015.4
20260905000417 91 207 1.7 2.6 0.00 0.00 0.00 46 1015.0
20260904235912 91 210 3.5 5.2 0.00 0.00 0.00 45 1015.2
20260904235408 91 206 5.2 6.1 0.00 0.00 0.00 44 1015.2
20260904234908 92 176 2.6 4.3 0.00 0.00 0.00 43 1014.9
20260904234402 92 164 1.7 2.6 0.00 0.00 0.00 44 1015.1
20260904233858 92 176 2.6 2.6 0.00 0.00 0.00 44 1015.0
20260904233354 93 212 4.3 6.1 0.00 0.00 0.00 43 1015.0
20260904232850 93 156 3.5 5.2 0.00 0.00 0.00 43 1014.8
20260904232346 93 161 2.6 4.3 0.00 0.00 0.00 43 1014.5
20260904231843 93 181 3.5 5.2 0.00 0.00 0.00 43 1014.8
20260904231342 93 195 0.9 0.9 0.00 0.00 0.00 46 1015.1
20260904230838 93 160 4.3 5.2 0.00 0.00 0.00 45 1015.0
20260904230336 93 141 4.3 6.1 0.00 0.00 0.00 45 1014.9
20260904225832 94 182 1.7 1.7 0.00 0.00 0.00 45 1015.3
20260904225330 94 184 4.3 6.1 0.00 0.00 0.00 44 1015.1
20260904224829 94 117 4.3 6.1 0.00 0.00 0.00 44 1015.3
20260904224325 94 189 3.5 4.3 0.00 0.00 0.00 41 1015.2
20260904223824 93 214 3.5 4.3 0.00 0.00 0.00 47 1015.4
20260904223319 93 186 3.5 4.3 0.00 0.00 0.00 47 1015.3
20260904222816 94 211 1.7 2.6 0.00 0.00 0.00 45 1015.3
20260904222315 93 169 5.2 6.1 0.00 0.00 0.00 47 1015.2
20260904221810 93 118 5.2 6.1 0.00 0.00 0.00 49 1015.3
20260904221310 93 215 1.7 2.6 0.00 0.00 0.00 51 1015.3
20260904220806 93 191 4.3 5.2 0.00 0.00 0.00 52 1015.4
20260904220305 94 224 3.5 5.2 0.00 0.00 0.00 52 1015.5
20260904215800 94 196 4.3 7.0 0.00 0.00 0.00 51 1015.3
20260904215255 93 143 7.0 8.7 0.00 0.00 0.00 52 1015.4
20260904214751 93 165 4.3 6.1 0.00 0.00 0.00 52 1015.5
20260904214247 93 138 5.2 6.1 0.00 0.00 0.00 50 1015.6
20260904213745 93 169 4.3 6.1 0.00 0.00 0.00 52 1015.5
20260904213241 93 221 4.3 6.1 0.00 0.00 0.00 53 1015.7
20260904212736 92 187 2.6 4.3 0.00 0.00 0.00 55 1015.7
20260904212236 92 206 2.6 2.6 0.00 0.00 0.00 54 1015.6
20260904211731 93 129 5.2 7.8 0.00 0.00 0.00 55 1015.7
20260904211226 93 208 0.0 0.9 0.00 0.00 0.00 54 1015.8
20260904210721 95 158 6.1 7.8 0.00 0.00 0.00 53 1015.9
20260904210216 95 188 1.7 2.6 0.00 0.00 0.00 51 1016.0
20260904205712 93 196 2.6 4.3 0.00 0.00 0.00 53 1015.9
20260904205208 94 97 2.6 2.6 0.00 0.00 0.00 53 1015.9
20260904204703 94 160 2.6 4.3 0.00 0.00 0.00 52 1016.2
20260904204159 94 198 2.6 4.3 0.00 0.00 0.00 53 1016.1
20260904203655 94 230 0.0 0.0 0.00 0.00 0.00 56 1016.3
20260904203152 94 203 3.5 4.3 0.00 0.00 0.00 56 1016.3
20260904202647 94 160 3.5 4.3 0.00 0.00 0.00 56 1016.2
20260904202143 94 129 2.6 2.6 0.00 0.00 0.00 56 1016.3
20260904201638 94 176 2.6 4.3 0.00 0.00 0.00 55 1016.3
20260904201132 93 230 2.6 2.6 0.00 0.00 0.00 57 1016.5
20260904200627 93 155 5.2 6.1 0.00 0.00 0.00 60 1016.4
20260904200121 93 195 6.1 7.8 0.00 0.00 0.00 58 1016.6
20260904195620 93 201 6.1 8.7 0.00 0.00 0.00 59 1016.6
20260904195114 93 169 2.6 2.6 0.00 0.00 0.00 61 1016.6
20260904194614 92 206 3.5 4.3 0.00 0.00 0.00 61 1016.6
20260904194109 92 192 3.5 4.3 0.00 0.00 0.00 63 1016.7
20260904193603 92 181 4.3 5.2 0.00 0.00 0.00 63 1016.6
20260904193100 91 227 1.7 1.7 0.00 0.00 0.00 65 1017.1
20260904192559 91 133 1.7 1.7 0.00 0.00 0.00 64 1017.0
20260904192055 91 207 3.5 6.1 0.00 0.00 0.00 65 1017.2
20260904191552 91 144 3.5 4.3 0.00 0.00 0.00 65 1017.4
20260904191048 90 185 5.2 7.8 0.00 0.00 0.00 67 1017.5
20260904190543 89 186 4.3 5.2 0.00 0.00 0.00 68 1017.5
20260904190039 89 149 4.3 6.1 0.00 0.00 0.00 69 1017.6
20260904185536 90 214 3.5 5.2 0.00 0.00 0.00 67 1017.5
20260904185031 90 167 6.1 7.8 0.00 0.00 0.00 67 1017.4
20260904184530 89 168 4.3 6.1 0.00 0.00 0.00 68 1017.6
20260904184026 88 203 1.7 1.7 0.00 0.00 0.00 69 1017.7
20260904183521 89 221 2.6 4.3 0.00 0.00 0.00 69 1017.7
20260904183016 89 205 1.7 2.6 0.00 0.00 0.00 69 1017.9
20260904182512 89 172 1.7 2.6 0.00 0.00 0.00 69 1017.6
20260904182011 90 177 3.5 6.1 0.00 0.00 0.00 68 1017.6
20260904181507 89 183 5.2 6.1 0.00 0.00 0.00 68 1017.7
20260904181001 90 164 5.2 7.0 0.00 0.00 0.00 68 1017.8
20260904180456 90 193 4.3 5.2 0.00 0.00 0.00 68 1018.1
20260904175955 90 207 2.6 2.6 0.00 0.00 0.00 68 1017.9
20260904175450 89 180 1.7 5.2 0.00 0.00 0.00 69 1018.1
20260904174949 89 174 3.5 5.2 0.00 0.00 0.00 68 1018.0
20260904174445 88 195 2.6 2.6 0.00 0.00 0.00 71 1018.2
20260904173941 88 137 2.6 4.3 0.00 0.00 0.00 70 1018.2
20260904173441 88 160 3.5 6.1 0.00 0.00 0.00 69 1018.5
20260904172936 88 205 0.0 0.0 0.00 0.00 0.00 69 1018.3
20260904172431 89 215 2.6 4.3 0.00 0.00 0.00 68 1018.6
20260904171926 88 203 1.7 4.3 0.00 0.00 0.00 72 1018.2
20260904171422 89 245 1.7 2.6 0.00 0.00 0.00 69 1018.1
20260904170918 88 199 2.6 4.3 0.00 0.00 0.00 70 1018.3
20260904170413 89 196 0.9 1.7 0.00 0.00 0.00 70 1018.3
20260904165908 89 195 1.7 2.6 0.00 0.00 0.00 67 1018.5
20260904165407 89 182 2.6 4.3 0.00 0.00 0.00 68 1018.4
20260904164906 89 173 0.9 1.7 0.00 0.00 0.00 70 1018.3
20260904164401 87 222 0.0 0.0 0.00 0.00 0.00 75 1018.2
20260904163857 87 189 2.6 4.3 0.00 0.00 0.00 72 1018.2
20260904163357 87 168 0.9 1.7 0.00 0.00 0.00 73 1018.1
20260904162856 86 279 0.9 0.9 0.00 0.00 0.00 75 1018.3
20260904162352 86 184 0.0 0.0 0.00 0.00 0.00 77 1018.2
20260904161847 85 250 1.7 2.6 0.00 0.00 0.00 77 1018.2
20260904161342 85 281 1.7 1.7 0.00 0.00 0.00 78 1018.6
20260904160838 85 210 0.0 0.9 0.00 0.00 0.00 78 1018.3
20260904160333 85 210 0.0 0.0 0.00 0.00 0.00 78 1018.3
20260904155828 85 208 0.0 0.0 0.00 0.00 0.00 80 1018.3
20260904155322 85 223 0.9 2.6 0.00 0.00 0.00 80 1018.2
20260904154821 84 177 2.6 2.6 0.00 0.00 0.00 81 1018.0
20260904154315 84 173 1.7 1.7 0.00 0.00 0.00 81 1018.1
20260904153811 84 185 1.7 1.7 0.00 0.00 0.00 82 1018.2
20260904153306 83 182 0.9 1.7 0.00 0.00 0.00 83 1018.1
20260904152803 83 220 1.7 1.7 0.00 0.00 0.00 83 1018.2
20260904152257 83 181 1.7 1.7 0.00 0.00 0.00 84 1018.2
20260904151752 83 203 0.0 0.9 0.00 0.00 0.00 85 1018.0
20260904151251 82 190 2.6 2.6 0.00 0.00 0.00 86 1018.0
20260904150748 82 260 0.0 0.9 0.00 0.00 0.00 87 1018.2
20260904150243 82 206 0.9 0.9 0.00 0.00 0.00 87 1018.2
20260904145740 82 187 0.0 0.9 0.00 0.00 0.00 88 1018.2
20260904145236 82 211 0.9 1.7 0.00 0.00 0.00 88 1018.2
20260904144732 82 214 0.0 0.0 0.00 0.00 0.00 89 1018.3
20260904144227 82 222 0.9 0.9 0.00 0.00 0.00 89 1018.5
20260904143722 81 212 0.0 0.0 0.00 0.00 0.00 90 1018.5
20260904143220 81 216 0.0 0.9 0.00 0.00 0.00 91 1018.3
20260904142716 81 212 0.9 0.9 0.00 0.00 0.00 91 1018.4
20260904142211 81 199 0.0 0.0 0.00 0.00 0.00 92 1018.5
20260904141711 81 198 0.0 0.9 0.00 0.00 0.00 93 1018.3
20260904141207 81 197 0.9 1.7 0.00 0.00 0.00 92 1018.3
20260904140702 81 213 0.9 0.9 0.00 0.00 0.00 92 1018.2
20260904140157 81 213 0.9 0.9 0.00 0.00 0.00 92 1018.3
20260904135656 80 213 0.0 0.9 0.00 0.00 0.00 92 1018.3
20260904135152 80 176 1.7 1.7 0.00 0.00 0.00 92 1018.3
20260904134648 80 187 0.9 0.9 0.00 0.00 0.00 93 1018.1
20260904134146 80 215 0.9 0.9 0.00 0.00 0.00 93 1018.1
20260904133642 80 178 1.7 1.7 0.00 0.00 0.00 93 1018.3
20260904133138 80 210 1.7 1.7 0.00 0.00 0.00 93 1018.3
20260904132637 80 212 0.9 0.9 0.00 0.00 0.00 93 1018.1
20260904132132 80 213 0.0 0.0 0.00 0.00 0.00 94 1018.3
20260904131631 80 212 0.9 1.7 0.00 0.00 0.00 94 1018.1
20260904131128 79 213 0.9 1.7 0.00 0.00 0.00 94 1018.1
20260904130627 79 212 0.0 0.0 0.00 0.00 0.00 94 1018.2
20260904130122 79 213 0.0 0.0 0.00 0.00 0.00 94 1018.1
20260904125618 79 212 0.9 0.9 0.00 0.00 0.00 94 1017.9
20260904125113 79 212 0.9 0.9 0.00 0.00 0.00 94 1017.7
20260904124608 79 225 0.0 0.0 0.00 0.00 0.00 94 1017.7
20260904124104 79 213 0.0 0.0 0.00 0.00 0.00 94 1017.7
20260904123603 79 212 0.9 1.7 0.00 0.00 0.00 94 1017.7
20260904123059 79 196 1.7 1.7 0.00 0.00 0.00 94 1017.4
20260904122554 79 189 0.9 1.7 0.00 0.00 0.00 94 1017.5
20260904122049 79 194 1.7 1.7 0.00 0.00 0.00 94 1017.7
20260904121544 79 184 2.6 2.6 0.00 0.00 0.00 94 1017.3
20260904121040 79 213 0.0 0.0 0.00 0.00 0.00 94 1017.2
20260904120536 79 209 0.9 0.9 0.00 0.00 0.00 94 1017.1
20260904120031 79 185 3.5 4.3 0.00 0.00 0.00 94 1017.1
20260904115527 79 185 1.7 2.6 0.00 0.00 0.00 95 1016.6
20260904115027 79 187 1.7 2.6 0.00 0.00 0.00 95 1016.7
20260904114522 79 166 2.6 2.6 0.00 0.00 0.00 95 1017.0
20260904114021 79 184 2.6 4.3 0.00 0.00 0.00 95 1016.7
20260904113516 79 212 0.0 0.0 0.00 0.00 0.00 95 1016.8
20260904113016 79 139 1.7 1.7 0.00 0.00 0.00 94 1016.4
20260904112511 79 171 0.9 1.7 0.00 0.00 0.00 94 1016.7
20260904112007 79 173 2.6 2.6 0.00 0.00 0.00 93 1016.6
20260904111503 79 209 0.0 0.0 0.00 0.00 0.00 92 1016.7
20260904110958 79 165 2.6 2.6 0.00 0.00 0.00 92 1016.5
20260904110457 80 209 0.9 0.9 0.00 0.00 0.00 92 1016.7
20260904105952 80 192 0.9 0.9 0.00 0.00 0.00 92 1016.6
20260904105452 80 212 0.9 1.7 0.00 0.00 0.00 92 1016.4
20260904104947 80 211 0.9 1.7 0.00 0.00 0.00 92 1016.5
20260904104442 80 211 0.0 0.0 0.00 0.00 0.00 92 1016.3
20260904103938 80 191 0.9 1.7 0.00 0.00 0.00 91 1016.4
20260904103434 80 211 0.0 0.0 0.00 0.00 0.00 91 1016.3
20260904102930 80 188 1.7 1.7 0.00 0.00 0.00 91 1016.3
20260904102425 80 212 1.7 1.7 0.00 0.00 0.00 91 1016.3
20260904101921 80 189 0.9 0.9 0.00 0.00 0.00 91 1016.3
20260904101417 80 208 0.9 0.9 0.00 0.00 0.00 91 1016.4
20260904100913 80 207 0.9 0.9 0.00 0.00 0.00 91 1016.3
20260904100409 80 207 0.9 0.9 0.00 0.00 0.00 91 1016.1
20260904095908 80 210 0.0 0.9 0.00 0.00 0.00 91 1016.3
20260904095403 80 207 0.9 0.9 0.00 0.00 0.00 91 1016.3
20260904094858 80 207 0.0 0.0 0.00 0.00 0.00 91 1016.2
20260904094353 80 209 0.9 1.7 0.00 0.00 0.00 90 1016.2
20260904093850 80 209 0.0 0.9 0.00 0.00 0.00 90 1016.2
20260904093349 80 207 1.7 2.6 0.00 0.00 0.00 90 1016.3
20260904092845 80 177 1.7 1.7 0.00 0.00 0.00 90 1015.9
20260904092342 80 205 0.9 0.9 0.00 0.00 0.00 90 1015.8
20260904091837 80 211 1.7 1.7 0.00 0.00 0.00 90 1016.0
20260904091333 80 206 0.9 0.9 0.00 0.00 0.00 90 1015.9
20260904090827 80 205 0.0 0.9 0.00 0.00 0.00 89 1016.3
20260904090324 80 205 0.9 0.9 0.00 0.00 0.00 89 1016.2
20260904085818 80 219 0.0 0.0 0.00 0.00 0.00 89 1016.1
20260904085314 80 203 0.0 0.9 0.00 0.00 0.00 89 1016.3
20260904084808 80 219 0.0 0.0 0.00 0.00 0.00 89 1016.2
20260904084304 80 208 0.0 1.7 0.00 0.00 0.00 89 1016.1
20260904083800 80 203 0.0 0.9 0.00 0.00 0.00 89 1016.3
20260904083256 80 220 0.0 0.0 0.00 0.00 0.00 89 1016.1
20260904082751 80 220 0.0 0.0 0.00 0.00 0.00 89 1016.1
20260904082245 80 203 0.0 0.9 0.00 0.00 0.00 89 1016.2
20260904081741 80 203 0.0 0.9 0.00 0.00 0.00 89 1016.1
20260904081237 80 199 0.9 1.7 0.00 0.00 0.00 89 1016.3
20260904080732 80 200 0.9 1.7 0.00 0.00 0.00 89 1016.2
20260904080228 80 209 0.9 0.9 0.00 0.00 0.00 89 1016.2
20260904075724 80 186 2.6 2.6 0.00 0.00 0.00 89 1016.2
20260904075219 80 184 2.6 4.3 0.00 0.00 0.00 88 1016.3
20260904074718 80 206 0.0 0.9 0.00 0.00 0.00 88 1015.9
20260904074212 80 199 1.7 2.6 0.00 0.00 0.00 88 1016.3
20260904073708 80 216 1.7 1.7 0.00 0.00 0.00 88 1016.3
20260904073204 80 201 2.6 2.6 0.00 0.00 0.00 87 1016.1
20260904072700 80 203 0.0 0.0 0.00 0.00 0.00 87 1016.2
20260904072154 80 167 0.9 1.7 0.00 0.00 0.00 87 1016.3
20260904071650 80 198 2.6 2.6 0.00 0.00 0.00 87 1016.3
20260904071145 81 199 0.9 1.7 0.00 0.00 0.00 86 1016.4
20260904070644 81 176 1.7 1.7 0.00 0.00 0.00 86 1016.6
20260904070143 81 159 3.5 5.2 0.00 0.00 0.00 86 1016.6
20260904065638 81 223 0.0 0.9 0.00 0.00 0.00 85 1016.7
20260904065136 81 163 2.6 2.6 0.00 0.00 0.00 85 1016.7
20260904064631 81 162 3.5 4.3 0.00 0.00 0.00 85 1016.7
20260904064131 81 198 2.6 2.6 0.00 0.00 0.00 85 1016.7
20260904063627 81 223 0.0 0.0 0.00 0.00 0.00 85 1016.5
20260904063122 81 217 0.0 0.0 0.00 0.00 0.00 84 1016.6
20260904062618 81 162 1.7 2.6 0.00 0.00 0.00 85 1016.7
20260904062113 81 211 0.9 0.9 0.00 0.00 0.00 84 1016.4
20260904061609 81 199 0.0 0.0 0.00 0.00 0.00 84 1016.4
20260904061105 81 181 3.5 5.2 0.00 0.00 0.00 84 1016.3
20260904060601 81 201 0.9 0.9 0.00 0.00 0.00 84 1016.6
20260904060057 81 204 0.9 0.9 0.00 0.00 0.00 84 1016.5
20260904055552 81 177 2.6 2.6 0.00 0.00 0.00 83 1016.4
20260904055047 81 130 2.6 5.2 0.00 0.00 0.00 84 1016.3
20260904054543 81 187 2.6 2.6 0.00 0.00 0.00 84 1016.4
20260904054039 81 203 0.9 1.7 0.00 0.00 0.00 84 1016.3
20260904053538 81 153 1.7 2.6 0.00 0.00 0.00 83 1016.4
20260904053034 81 201 2.6 2.6 0.00 0.00 0.00 83 1016.2
20260904052530 81 187 1.7 1.7 0.00 0.00 0.00 84 1016.3
20260904052026 81 156 0.9 2.6 0.00 0.00 0.00 84 1016.2
20260904051522 81 183 0.9 0.9 0.00 0.00 0.00 83 1016.3